Time,TemperatureF,DewpointF,PressureIn,WindDirection,WindDirectionDegrees,WindSpeedMPH,WindSpeedGustMPH,Humidity,HourlyPrecipIn,Conditions,Clouds,dailyrainin,SoftwareType,DateUTC
2013-05-07 00:02:00,60.4,56.5,30.00,SE,134,1.0,1.0,87,0.00,,,0.00,Wunderground v.1.15,2013-05-07 07:02:00,
2013-05-07 00:12:00,60.5,56.6,30.00,SSE,153,1.0,1.0,87,0.00,,,0.00,Wunderground v.1.15,2013-05-07 07:12:00,
2013-05-07 00:22:00,60.5,56.6,30.00,South,174,2.0,2.0,87,0.00,,,0.00,Wunderground v.1.15,2013-05-07 07:22:00,
2013-05-07 00:27:00,60.5,56.6,30.00,SE,141,1.0,2.0,87,0.00,,,0.00,Wunderground v.1.15,2013-05-07 07:27:00,
2013-05-07 00:32:00,60.5,56.6,30.00,SE,137,1.0,2.0,87,0.00,,,0.00,Wunderground v.1.15,2013-05-07 07:32:00,
2013-05-07 00:37:00,60.5,56.6,30.00,SE,137,1.0,2.0,87,0.00,,,0.00,Wunderground v.1.15,2013-05-07 07:37:00,
2013-05-07 00:42:00,60.6,56.7,30.00,SE,137,1.0,1.0,87,0.00,,,0.00,Wunderground v.1.15,2013-05-07 07:42:00,
2013-05-07 00:52:00,60.5,56.9,30.00,ESE,121,2.0,2.0,88,0.00,,,0.00,Wunderground v.1.15,2013-05-07 07:52:00,
2013-05-07 00:57:00,60.5,56.9,29.99,ESE,122,1.0,2.0,88,0.00,,,0.00,Wunderground v.1.15,2013-05-07 07:57:00,
2013-05-07 01:07:00,60.4,56.8,29.99,ESE,122,1.0,2.0,88,0.00,,,0.00,Wunderground v.1.15,2013-05-07 08:07:00,
2013-05-07 01:12:00,60.3,56.7,29.99,ESE,122,1.0,1.0,88,0.00,,,0.00,Wunderground v.1.15,2013-05-07 08:12:00,
2013-05-07 01:22:00,60.1,56.5,29.99,ESE,122,0.0,1.0,88,0.00,,,0.00,Wunderground v.1.15,2013-05-07 08:22:00,
2013-05-07 01:27:00,59.9,56.3,29.99,ESE,122,0.0,1.0,88,0.00,,,0.00,Wunderground v.1.15,2013-05-07 08:27:00,
2013-05-07 01:32:00,59.8,56.2,29.99,ESE,122,0.0,0.0,88,0.00,,,0.00,Wunderground v.1.15,2013-05-07 08:32:00,
2013-05-07 01:42:00,59.5,56.3,29.98,ESE,122,0.0,0.0,89,0.00,,,0.00,Wunderground v.1.15,2013-05-07 08:42:00,
2013-05-07 01:52:00,59.3,56.1,29.98,ESE,122,0.0,0.0,89,0.00,,,0.00,Wunderground v.1.15,2013-05-07 08:52:00,
2013-05-07 01:57:00,59.2,56.3,29.99,ESE,122,0.0,0.0,90,0.00,,,0.00,Wunderground v.1.15,2013-05-07 08:57:00,
2013-05-07 02:07:00,59.2,56.3,29.98,ESE,122,0.0,1.0,90,0.00,,,0.00,Wunderground v.1.15,2013-05-07 09:07:00,
2013-05-07 02:12:00,59.1,56.2,29.98,ESE,122,0.0,0.0,90,0.00,,,0.00,Wunderground v.1.15,2013-05-07 09:12:00,
2013-05-07 02:22:00,59.1,55.9,29.98,ESE,122,0.0,0.0,89,0.00,,,0.00,Wunderground v.1.15,2013-05-07 09:22:00,
2013-05-07 02:32:00,59.1,56.2,29.98,ESE,122,1.0,1.0,90,0.00,,,0.00,Wunderground v.1.15,2013-05-07 09:32:00,
2013-05-07 02:37:00,59.2,56.0,29.98,ESE,122,1.0,1.0,89,0.00,,,0.00,Wunderground v.1.15,2013-05-07 09:37:00,
2013-05-07 02:47:00,59.2,56.0,29.98,ESE,122,0.0,1.0,89,0.00,,,0.00,Wunderground v.1.15,2013-05-07 09:47:00,
2013-05-07 02:57:00,59.1,55.9,29.98,ESE,122,0.0,0.0,89,0.00,,,0.00,Wunderground v.1.15,2013-05-07 09:57:00,
2013-05-07 03:07:00,59.0,55.8,29.98,ESE,122,0.0,0.0,89,0.00,,,0.00,Wunderground v.1.15,2013-05-07 10:07:00,
2013-05-07 03:17:00,59.0,56.1,29.98,ESE,122,0.0,1.0,90,0.00,,,0.00,Wunderground v.1.15,2013-05-07 10:17:00,
2013-05-07 03:22:00,59.1,56.2,29.98,ESE,122,0.0,0.0,90,0.00,,,0.00,Wunderground v.1.15,2013-05-07 10:22:00,
2013-05-07 03:32:00,59.1,56.2,29.97,ESE,122,0.0,0.0,90,0.00,,,0.00,Wunderground v.1.15,2013-05-07 10:32:00,
2013-05-07 03:37:00,59.1,56.2,29.97,ESE,122,0.0,0.0,90,0.00,,,0.00,Wunderground v.1.15,2013-05-07 10:37:00,
2013-05-07 03:47:00,59.0,56.1,29.97,ESE,122,0.0,0.0,90,0.00,,,0.00,Wunderground v.1.15,2013-05-07 10:47:00,
2013-05-07 03:57:00,58.9,56.0,29.97,ESE,122,0.0,0.0,90,0.00,,,0.00,Wunderground v.1.15,2013-05-07 10:57:00,
2013-05-07 04:02:00,58.7,55.8,29.97,ESE,122,0.0,0.0,90,0.00,,,0.00,Wunderground v.1.15,2013-05-07 11:02:00,
2013-05-07 04:12:00,58.5,55.9,29.97,ESE,122,0.0,0.0,91,0.00,,,0.00,Wunderground v.1.15,2013-05-07 11:12:00,
2013-05-07 04:17:00,58.5,55.9,29.97,ESE,122,0.0,2.0,91,0.00,,,0.00,Wunderground v.1.15,2013-05-07 11:17:00,
2013-05-07 04:27:00,58.4,55.8,29.97,ESE,122,0.0,1.0,91,0.00,,,0.00,Wunderground v.1.15,2013-05-07 11:27:00,
2013-05-07 04:32:00,58.3,55.7,29.97,ESE,122,0.0,0.0,91,0.00,,,0.00,Wunderground v.1.15,2013-05-07 11:32:00,
2013-05-07 04:42:00,58.2,55.6,29.97,ESE,122,0.0,0.0,91,0.00,,,0.00,Wunderground v.1.15,2013-05-07 11:42:00,
2013-05-07 04:52:00,58.0,55.7,29.97,ESE,122,0.0,0.0,92,0.00,,,0.00,Wunderground v.1.15,2013-05-07 11:52:00,
2013-05-07 05:02:00,57.9,55.6,29.97,ESE,122,0.0,0.0,92,0.00,,,0.00,Wunderground v.1.15,2013-05-07 12:02:00,
2013-05-07 05:07:00,57.8,55.5,29.97,ESE,122,0.0,1.0,92,0.00,,,0.00,Wunderground v.1.15,2013-05-07 12:07:00,
2013-05-07 05:12:00,57.8,55.5,29.97,ESE,122,0.0,1.0,92,0.00,,,0.00,Wunderground v.1.15,2013-05-07 12:12:00,
2013-05-07 05:22:00,58.0,55.7,29.97,ESE,122,1.0,1.0,92,0.00,,,0.00,Wunderground v.1.15,2013-05-07 12:22:00,
2013-05-07 05:32:00,58.1,55.8,29.97,ESE,122,1.0,1.0,92,0.00,,,0.00,Wunderground v.1.15,2013-05-07 12:32:00,
2013-05-07 05:42:00,58.2,55.9,29.97,ESE,122,1.0,1.0,92,0.00,,,0.00,Wunderground v.1.15,2013-05-07 12:42:00,
2013-05-07 05:47:00,58.2,55.6,29.97,ESE,122,1.0,1.0,91,0.00,,,0.00,Wunderground v.1.15,2013-05-07 12:47:00,
2013-05-07 05:52:00,58.2,55.3,29.97,ESE,122,0.0,0.0,90,0.00,,,0.00,Wunderground v.1.15,2013-05-07 12:52:00,
2013-05-07 05:57:00,58.2,55.0,29.98,ESE,122,0.0,2.0,89,0.00,,,0.00,Wunderground v.1.15,2013-05-07 12:57:00,
2013-05-07 06:02:00,58.2,54.7,29.98,ESE,122,0.0,0.0,88,0.00,,,0.00,Wunderground v.1.15,2013-05-07 13:02:00,
2013-05-07 06:07:00,58.3,54.8,29.98,ESE,122,0.0,0.0,88,0.00,,,0.00,Wunderground v.1.15,2013-05-07 13:07:00,
2013-05-07 06:17:00,58.3,55.4,29.98,ESE,122,0.0,1.0,90,0.00,,,0.00,Wunderground v.1.15,2013-05-07 13:17:00,
2013-05-07 06:22:00,58.3,55.4,29.98,ESE,122,0.0,1.0,90,0.00,,,0.00,Wunderground v.1.15,2013-05-07 13:22:00,
2013-05-07 06:27:00,58.2,55.6,29.98,ESE,122,0.0,1.0,91,0.00,,,0.00,Wunderground v.1.15,2013-05-07 13:27:00,
2013-05-07 06:32:00,58.1,55.5,29.99,ESE,122,1.0,1.0,91,0.00,,,0.00,Wunderground v.1.15,2013-05-07 13:32:00,
2013-05-07 06:37:00,58.0,55.4,29.99,ESE,122,1.0,1.0,91,0.00,,,0.00,Wunderground v.1.15,2013-05-07 13:37:00,
2013-05-07 06:47:00,57.7,55.1,29.99,ESE,122,1.0,1.0,91,0.00,,,0.00,Wunderground v.1.15,2013-05-07 13:47:00,
2013-05-07 06:52:00,57.6,55.0,29.99,ESE,122,0.0,1.0,91,0.00,,,0.00,Wunderground v.1.15,2013-05-07 13:52:00,
2013-05-07 07:02:00,57.6,55.0,30.00,ESE,122,0.0,0.0,91,0.00,,,0.00,Wunderground v.1.15,2013-05-07 14:02:00,
2013-05-07 07:07:00,57.7,55.1,30.00,ESE,122,0.0,0.0,91,0.00,,,0.00,Wunderground v.1.15,2013-05-07 14:07:00,
2013-05-07 07:12:00,57.8,55.2,30.00,ESE,122,0.0,0.0,91,0.00,,,0.00,Wunderground v.1.15,2013-05-07 14:12:00,
2013-05-07 07:22:00,58.2,55.3,29.99,ESE,122,0.0,1.0,90,0.00,,,0.00,Wunderground v.1.15,2013-05-07 14:22:00,
2013-05-07 07:27:00,58.4,55.2,30.00,ESE,122,1.0,1.0,89,0.00,,,0.00,Wunderground v.1.15,2013-05-07 14:27:00,
2013-05-07 07:37:00,59.1,55.2,30.00,ENE,62,1.0,1.0,87,0.00,,,0.00,Wunderground v.1.15,2013-05-07 14:37:00,
2013-05-07 07:47:00,60.3,55.8,30.00,ENE,62,1.0,2.0,85,0.00,,,0.00,Wunderground v.1.15,2013-05-07 14:47:00,
2013-05-07 07:52:00,60.8,55.9,30.00,ENE,62,1.0,2.0,84,0.00,,,0.00,Wunderground v.1.15,2013-05-07 14:52:00,
2013-05-07 08:02:00,61.0,55.8,30.00,ESE,107,2.0,2.0,83,0.00,,,0.00,Wunderground v.1.15,2013-05-07 15:02:00,
2013-05-07 08:07:00,60.9,56.4,30.00,ESE,107,1.0,2.0,85,0.00,,,0.00,Wunderground v.1.15,2013-05-07 15:07:00,
2013-05-07 08:12:00,60.9,56.7,30.01,SSE,161,1.0,1.0,86,0.00,,,0.00,Wunderground v.1.15,2013-05-07 15:12:00,
2013-05-07 08:17:00,60.7,56.2,30.01,SSE,161,1.0,1.0,85,0.00,,,0.00,Wunderground v.1.15,2013-05-07 15:17:00,
2013-05-07 08:22:00,60.6,56.4,30.01,SSE,161,1.0,1.0,86,0.00,,,0.00,Wunderground v.1.15,2013-05-07 15:22:00,
2013-05-07 08:32:00,60.6,56.7,30.01,SSE,161,1.0,1.0,87,0.00,,,0.00,Wunderground v.1.15,2013-05-07 15:32:00,
2013-05-07 08:37:00,60.6,56.4,30.01,SSE,161,1.0,1.0,86,0.00,,,0.00,Wunderground v.1.15,2013-05-07 15:37:00,
2013-05-07 08:42:00,60.5,56.3,30.01,SSW,211,1.0,2.0,86,0.00,,,0.00,Wunderground v.1.15,2013-05-07 15:42:00,
2013-05-07 08:52:00,60.5,56.0,30.01,SW,215,2.0,5.0,85,0.00,,,0.01,Wunderground v.1.15,2013-05-07 15:52:00,
2013-05-07 08:57:00,60.3,56.1,30.01,West,261,2.0,5.0,86,0.00,,,0.01,Wunderground v.1.15,2013-05-07 15:57:00,
2013-05-07 09:02:00,60.3,55.8,30.01,West,275,3.0,3.0,85,0.00,,,0.01,Wunderground v.1.15,2013-05-07 16:02:00,
2013-05-07 09:07:00,60.6,56.1,30.01,West,275,2.0,3.0,85,0.00,,,0.01,Wunderground v.1.15,2013-05-07 16:07:00,
2013-05-07 09:17:00,60.9,56.4,30.01,SSE,165,2.0,2.0,85,0.00,,,0.01,Wunderground v.1.15,2013-05-07 16:17:00,
2013-05-07 09:22:00,61.2,56.0,30.02,SSE,167,1.0,2.0,83,0.00,,,0.01,Wunderground v.1.15,2013-05-07 16:22:00,
2013-05-07 09:27:00,61.4,56.5,30.01,South,177,1.0,3.0,84,0.00,,,0.01,Wunderground v.1.15,2013-05-07 16:27:00,
2013-05-07 09:37:00,62.4,56.5,30.01,SSW,200,2.0,3.0,81,0.00,,,0.01,Wunderground v.1.15,2013-05-07 16:37:00,
2013-05-07 09:42:00,62.8,56.2,30.01,SSE,165,3.0,3.0,79,0.00,,,0.01,Wunderground v.1.15,2013-05-07 16:42:00,
2013-05-07 09:52:00,63.3,56.0,30.01,SSE,166,3.0,3.0,77,0.00,,,0.01,Wunderground v.1.15,2013-05-07 16:52:00,
2013-05-07 10:02:00,63.9,56.5,30.01,South,180,3.0,3.0,77,0.00,,,0.01,Wunderground v.1.15,2013-05-07 17:02:00,
2013-05-07 10:07:00,63.9,56.5,30.02,SSW,196,3.0,3.0,77,0.00,,,0.01,Wunderground v.1.15,2013-05-07 17:07:00,
2013-05-07 10:17:00,63.5,55.1,30.02,South,177,3.0,4.0,74,0.00,,,0.01,Wunderground v.1.15,2013-05-07 17:17:00,
2013-05-07 10:22:00,63.8,55.0,30.02,South,173,3.0,3.0,73,0.00,,,0.01,Wunderground v.1.15,2013-05-07 17:22:00,
2013-05-07 10:32:00,64.5,55.3,30.02,SSW,213,2.0,3.0,72,0.00,,,0.01,Wunderground v.1.15,2013-05-07 17:32:00,
2013-05-07 10:37:00,65.3,52.4,30.02,SSW,205,3.0,4.0,63,0.00,,,0.01,Wunderground v.1.15,2013-05-07 17:37:00,
2013-05-07 10:47:00,66.2,51.9,30.02,SW,223,2.0,3.0,60,0.00,,,0.01,Wunderground v.1.15,2013-05-07 17:47:00,
2013-05-07 10:52:00,66.6,52.3,30.02,ENE,66,2.0,3.0,60,0.00,,,0.01,Wunderground v.1.15,2013-05-07 17:52:00,
2013-05-07 10:57:00,67.0,52.7,30.02,South,183,2.0,4.0,60,0.00,,,0.01,Wunderground v.1.15,2013-05-07 17:57:00,
2013-05-07 11:07:00,67.7,52.4,30.02,NW,314,3.0,3.0,58,0.00,,,0.01,Wunderground v.1.15,2013-05-07 18:07:00,
2013-05-07 11:17:00,68.0,51.2,30.01,South,178,3.0,3.0,55,0.00,,,0.01,Wunderground v.1.15,2013-05-07 18:17:00,
2013-05-07 11:27:00,68.3,51.5,30.01,South,188,3.0,9.0,55,0.00,,,0.01,Wunderground v.1.15,2013-05-07 18:27:00,
2013-05-07 11:37:00,67.6,50.9,30.01,South,188,5.0,5.0,55,0.00,,,0.01,Wunderground v.1.15,2013-05-07 18:37:00,
2013-05-07 11:42:00,67.7,50.9,30.01,WSW,251,6.0,6.0,55,0.00,,,0.01,Wunderground v.1.15,2013-05-07 18:42:00,
2013-05-07 11:52:00,69.0,51.7,30.01,SSW,205,2.0,3.0,54,0.00,,,0.01,Wunderground v.1.15,2013-05-07 18:52:00,
2013-05-07 11:57:00,68.8,51.0,30.01,WSW,257,3.0,3.0,53,0.00,,,0.01,Wunderground v.1.15,2013-05-07 18:57:00,
2013-05-07 12:07:00,68.2,50.4,30.01,North,360,4.0,4.0,53,0.00,,,0.01,Wunderground v.1.15,2013-05-07 19:07:00,
2013-05-07 12:17:00,68.9,48.4,30.00,West,261,3.0,4.0,48,0.00,,,0.01,Wunderground v.1.15,2013-05-07 19:17:00,
2013-05-07 12:22:00,68.6,48.7,30.00,WSW,244,3.0,3.0,49,0.00,,,0.01,Wunderground v.1.15,2013-05-07 19:22:00,
2013-05-07 12:27:00,68.1,48.2,30.00,SW,216,3.0,3.0,49,0.00,,,0.01,Wunderground v.1.15,2013-05-07 19:27:00,
2013-05-07 12:37:00,68.1,50.3,30.00,WSW,242,4.0,6.0,53,0.00,,,0.01,Wunderground v.1.15,2013-05-07 19:37:00,
2013-05-07 12:42:00,68.6,49.7,30.00,WSW,238,5.0,5.0,51,0.00,,,0.01,Wunderground v.1.15,2013-05-07 19:42:00,
2013-05-07 12:47:00,69.0,50.1,30.00,SW,223,4.0,5.0,51,0.00,,,0.01,Wunderground v.1.15,2013-05-07 19:47:00,
2013-05-07 12:52:00,69.9,51.5,29.99,SW,222,3.0,7.0,52,0.00,,,0.01,Wunderground v.1.15,2013-05-07 19:52:00,
2013-05-07 13:02:00,69.4,50.5,29.99,South,184,5.0,5.0,51,0.00,,,0.01,Wunderground v.1.15,2013-05-07 20:02:00,
2013-05-07 13:07:00,69.5,50.6,29.99,SSE,163,4.0,6.0,51,0.00,,,0.01,Wunderground v.1.15,2013-05-07 20:07:00,
2013-05-07 13:17:00,69.2,50.8,29.99,SSW,200,5.0,7.0,52,0.00,,,0.01,Wunderground v.1.15,2013-05-07 20:17:00,
2013-05-07 13:27:00,70.3,51.3,29.98,SSE,161,5.0,5.0,51,0.00,,,0.01,Wunderground v.1.15,2013-05-07 20:27:00,
2013-05-07 13:32:00,70.4,50.9,29.98,SW,222,5.0,5.0,50,0.00,,,0.01,Wunderground v.1.15,2013-05-07 20:32:00,
2013-05-07 13:42:00,69.7,50.8,29.99,SW,219,6.0,8.0,51,0.00,,,0.01,Wunderground v.1.15,2013-05-07 20:42:00,
2013-05-07 13:47:00,69.1,50.7,29.99,South,190,5.0,8.0,52,0.00,,,0.01,Wunderground v.1.15,2013-05-07 20:47:00,
2013-05-07 13:57:00,68.6,49.7,29.99,SSW,201,5.0,9.0,51,0.00,,,0.01,Wunderground v.1.15,2013-05-07 20:57:00,
2013-05-07 14:07:00,68.3,50.5,29.99,SW,229,4.0,4.0,53,0.00,,,0.01,Wunderground v.1.15,2013-05-07 21:07:00,
2013-05-07 14:12:00,68.3,50.5,29.99,SW,225,4.0,9.0,53,0.00,,,0.01,Wunderground v.1.15,2013-05-07 21:12:00,
2013-05-07 14:17:00,68.1,50.3,29.99,SW,234,5.0,9.0,53,0.00,,,0.01,Wunderground v.1.15,2013-05-07 21:17:00,
2013-05-07 14:27:00,68.2,50.4,29.99,WSW,240,5.0,8.0,53,0.00,,,0.01,Wunderground v.1.15,2013-05-07 21:27:00,
2013-05-07 14:37:00,68.2,50.4,29.99,SW,217,4.0,7.0,53,0.00,,,0.01,Wunderground v.1.15,2013-05-07 21:37:00,
2013-05-07 14:42:00,68.1,50.8,29.99,SW,221,6.0,6.0,54,0.00,,,0.01,Wunderground v.1.15,2013-05-07 21:42:00,
2013-05-07 14:52:00,68.3,50.5,29.99,WSW,250,4.0,4.0,53,0.00,,,0.01,Wunderground v.1.15,2013-05-07 21:52:00,
2013-05-07 14:57:00,68.4,51.1,29.99,SSW,205,5.0,5.0,54,0.00,,,0.01,Wunderground v.1.15,2013-05-07 21:57:00,
2013-05-07 15:02:00,68.4,51.1,29.99,SSW,196,6.0,6.0,54,0.00,,,0.01,Wunderground v.1.15,2013-05-07 22:02:00,
2013-05-07 15:07:00,68.7,50.9,29.98,SSW,200,6.0,7.0,53,0.00,,,0.01,Wunderground v.1.15,2013-05-07 22:07:00,
2013-05-07 15:12:00,69.6,51.2,29.98,SSW,202,6.0,7.0,52,0.00,,,0.01,Wunderground v.1.15,2013-05-07 22:12:00,
2013-05-07 15:22:00,69.3,50.4,29.98,SSW,207,7.0,10.0,51,0.00,,,0.01,Wunderground v.1.15,2013-05-07 22:22:00,
2013-05-07 15:27:00,69.0,50.1,29.98,SW,229,7.0,10.0,51,0.00,,,0.01,Wunderground v.1.15,2013-05-07 22:27:00,
2013-05-07 15:37:00,69.0,50.6,29.98,WSW,249,6.0,7.0,52,0.00,,,0.01,Wunderground v.1.15,2013-05-07 22:37:00,
2013-05-07 15:42:00,69.7,50.8,29.98,SW,223,6.0,6.0,51,0.00,,,0.01,Wunderground v.1.15,2013-05-07 22:42:00,
2013-05-07 15:47:00,69.9,50.4,29.98,WSW,239,5.0,11.0,50,0.00,,,0.01,Wunderground v.1.15,2013-05-07 22:47:00,
2013-05-07 15:57:00,70.9,50.8,29.98,WSW,238,6.0,6.0,49,0.00,,,0.01,Wunderground v.1.15,2013-05-07 22:57:00,
2013-05-07 16:07:00,71.1,49.8,29.98,WSW,237,4.0,5.0,47,0.00,,,0.01,Wunderground v.1.15,2013-05-07 23:07:00,
2013-05-07 16:12:00,71.1,48.7,29.98,SSW,202,5.0,7.0,45,0.00,,,0.01,Wunderground v.1.15,2013-05-07 23:12:00,
2013-05-07 16:17:00,70.6,49.4,29.97,WSW,238,5.0,7.0,47,0.00,,,0.01,Wunderground v.1.15,2013-05-07 23:17:00,
2013-05-07 16:27:00,70.5,49.9,29.97,West,271,5.0,5.0,48,0.00,,,0.01,Wunderground v.1.15,2013-05-07 23:27:00,
2013-05-07 16:32:00,70.3,49.1,29.97,WSW,246,5.0,5.0,47,0.00,,,0.01,Wunderground v.1.15,2013-05-07 23:32:00,
2013-05-07 16:37:00,70.4,49.2,29.97,SW,229,5.0,5.0,47,0.00,,,0.01,Wunderground v.1.15,2013-05-07 23:37:00,
2013-05-07 16:47:00,70.7,48.9,29.97,West,261,5.0,5.0,46,0.00,,,0.01,Wunderground v.1.15,2013-05-07 23:47:00,
2013-05-07 16:52:00,71.0,49.2,29.97,SW,232,4.0,4.0,46,0.00,,,0.01,Wunderground v.1.15,2013-05-07 23:52:00,
2013-05-07 17:02:00,70.9,49.1,29.97,SSW,209,5.0,7.0,46,0.00,,,0.01,Wunderground v.1.15,2013-05-08 00:02:00,
2013-05-07 17:07:00,70.3,49.1,29.97,WNW,285,6.0,7.0,47,0.00,,,0.01,Wunderground v.1.15,2013-05-08 00:07:00,
2013-05-07 17:17:00,70.2,49.6,29.97,SW,235,5.0,6.0,48,0.00,,,0.01,Wunderground v.1.15,2013-05-08 00:17:00,
2013-05-07 17:27:00,70.1,48.9,29.97,WSW,250,5.0,5.0,47,0.00,,,0.01,Wunderground v.1.15,2013-05-08 00:27:00,
2013-05-07 17:32:00,69.7,48.6,29.97,SW,235,6.0,6.0,47,0.00,,,0.01,Wunderground v.1.15,2013-05-08 00:32:00,
2013-05-07 17:37:00,69.6,48.5,29.97,SW,232,5.0,10.0,47,0.00,,,0.01,Wunderground v.1.15,2013-05-08 00:37:00,
2013-05-07 17:47:00,69.1,48.6,29.97,SW,217,7.0,7.0,48,0.00,,,0.01,Wunderground v.1.15,2013-05-08 00:47:00,
2013-05-07 17:52:00,69.0,49.0,29.97,West,277,6.0,6.0,49,0.00,,,0.01,Wunderground v.1.15,2013-05-08 00:52:00,
2013-05-07 18:02:00,68.8,49.4,29.97,West,281,5.0,11.0,50,0.00,,,0.01,Wunderground v.1.15,2013-05-08 01:02:00,
2013-05-07 18:07:00,68.6,49.2,29.97,SSW,205,4.0,11.0,50,0.00,,,0.01,Wunderground v.1.15,2013-05-08 01:07:00,
2013-05-07 18:12:00,68.2,49.4,29.97,WNW,288,6.0,6.0,51,0.00,,,0.01,Wunderground v.1.15,2013-05-08 01:12:00,
2013-05-07 18:17:00,68.2,49.4,29.97,WSW,242,5.0,6.0,51,0.00,,,0.01,Wunderground v.1.15,2013-05-08 01:17:00,
2013-05-07 18:27:00,68.3,48.9,29.97,WSW,250,4.0,5.0,50,0.00,,,0.01,Wunderground v.1.15,2013-05-08 01:27:00,
2013-05-07 18:37:00,67.7,48.9,29.97,SSW,212,4.0,4.0,51,0.00,,,0.01,Wunderground v.1.15,2013-05-08 01:37:00,
2013-05-07 18:42:00,67.6,48.8,29.97,WSW,244,4.0,4.0,51,0.00,,,0.01,Wunderground v.1.15,2013-05-08 01:42:00,
2013-05-07 18:52:00,66.8,47.6,29.98,West,263,5.0,5.0,50,0.00,,,0.01,Wunderground v.1.15,2013-05-08 01:52:00,
2013-05-07 19:02:00,66.2,48.6,29.98,WSW,242,5.0,5.0,53,0.00,,,0.01,Wunderground v.1.15,2013-05-08 02:02:00,
2013-05-07 19:12:00,65.6,49.5,29.98,WSW,239,5.0,5.0,56,0.00,,,0.01,Wunderground v.1.15,2013-05-08 02:12:00,
2013-05-07 19:17:00,65.3,48.2,29.99,WNW,302,4.0,5.0,54,0.00,,,0.01,Wunderground v.1.15,2013-05-08 02:17:00,
2013-05-07 19:22:00,65.2,49.1,29.99,WSW,245,3.0,5.0,56,0.00,,,0.01,Wunderground v.1.15,2013-05-08 02:22:00,
2013-05-07 19:27:00,65.0,50.3,29.99,WSW,255,3.0,5.0,59,0.00,,,0.01,Wunderground v.1.15,2013-05-08 02:27:00,
2013-05-07 19:37:00,64.6,49.9,29.99,WSW,248,4.0,7.0,59,0.00,,,0.01,Wunderground v.1.15,2013-05-08 02:37:00,
2013-05-07 19:47:00,64.2,50.9,29.99,West,261,4.0,5.0,62,0.00,,,0.01,Wunderground v.1.15,2013-05-08 02:47:00,
2013-05-07 19:57:00,63.9,51.1,29.99,West,273,3.0,4.0,63,0.00,,,0.01,Wunderground v.1.15,2013-05-08 02:57:00,
2013-05-07 20:07:00,63.8,51.4,30.00,West,271,3.0,3.0,64,0.00,,,0.01,Wunderground v.1.15,2013-05-08 03:07:00,
2013-05-07 20:12:00,63.8,51.8,30.00,West,278,3.0,3.0,65,0.00,,,0.01,Wunderground v.1.15,2013-05-08 03:12:00,
2013-05-07 20:17:00,63.6,52.0,30.00,SW,235,2.0,4.0,66,0.00,,,0.01,Wunderground v.1.15,2013-05-08 03:17:00,
2013-05-07 20:27:00,63.4,52.2,30.00,West,271,3.0,3.0,67,0.00,,,0.01,Wunderground v.1.15,2013-05-08 03:27:00,
2013-05-07 20:37:00,63.2,52.9,30.00,SW,225,3.0,3.0,69,0.00,,,0.01,Wunderground v.1.15,2013-05-08 03:37:00,
2013-05-07 20:42:00,63.1,52.8,30.01,WNW,291,2.0,2.0,69,0.00,,,0.01,Wunderground v.1.15,2013-05-08 03:42:00,
2013-05-07 20:52:00,62.8,52.5,30.00,WNW,284,2.0,2.0,69,0.00,,,0.01,Wunderground v.1.15,2013-05-08 03:52:00,
2013-05-07 21:02:00,62.7,52.0,30.01,West,263,2.0,2.0,68,0.00,,,0.01,Wunderground v.1.15,2013-05-08 04:02:00,
2013-05-07 21:07:00,62.7,52.0,30.01,SW,226,2.0,2.0,68,0.00,,,0.01,Wunderground v.1.15,2013-05-08 04:07:00,
2013-05-07 21:17:00,62.9,52.6,30.01,WSW,240,3.0,4.0,69,0.00,,,0.01,Wunderground v.1.15,2013-05-08 04:17:00,
2013-05-07 21:22:00,62.9,52.2,30.01,WSW,257,3.0,4.0,68,0.00,,,0.01,Wunderground v.1.15,2013-05-08 04:22:00,
2013-05-07 21:32:00,63.0,52.7,30.01,West,272,2.0,2.0,69,0.00,,,0.01,Wunderground v.1.15,2013-05-08 04:32:00,
2013-05-07 21:42:00,63.0,52.7,30.02,WSW,242,3.0,3.0,69,0.00,,,0.01,Wunderground v.1.15,2013-05-08 04:42:00,
2013-05-07 21:52:00,63.0,52.3,30.02,SSW,202,4.0,4.0,68,0.00,,,0.01,Wunderground v.1.15,2013-05-08 04:52:00,
2013-05-07 21:57:00,63.0,52.7,30.03,SW,231,4.0,5.0,69,0.00,,,0.01,Wunderground v.1.15,2013-05-08 04:57:00,
2013-05-07 22:02:00,62.9,53.0,30.03,WSW,242,3.0,3.0,70,0.00,,,0.01,Wunderground v.1.15,2013-05-08 05:02:00,
2013-05-07 22:12:00,62.7,53.5,30.03,SSW,202,4.0,6.0,72,0.00,,,0.01,Wunderground v.1.15,2013-05-08 05:12:00,
2013-05-07 22:17:00,62.5,53.7,30.03,SSW,212,4.0,6.0,73,0.00,,,0.01,Wunderground v.1.15,2013-05-08 05:17:00,
2013-05-07 22:27:00,62.4,53.6,30.03,SW,236,4.0,5.0,73,0.00,,,0.01,Wunderground v.1.15,2013-05-08 05:27:00,
2013-05-07 22:32:00,62.3,53.5,30.03,SSW,210,4.0,4.0,73,0.00,,,0.01,Wunderground v.1.15,2013-05-08 05:32:00,
2013-05-07 22:42:00,62.1,54.1,30.04,SW,221,3.0,3.0,75,0.00,,,0.01,Wunderground v.1.15,2013-05-08 05:42:00,
2013-05-07 22:47:00,62.0,54.0,30.04,SW,221,2.0,3.0,75,0.00,,,0.01,Wunderground v.1.15,2013-05-08 05:47:00,
2013-05-07 22:52:00,61.9,54.2,30.04,SW,224,1.0,2.0,76,0.00,,,0.01,Wunderground v.1.15,2013-05-08 05:52:00,
2013-05-07 22:57:00,61.9,54.6,30.04,SW,236,2.0,2.0,77,0.00,,,0.01,Wunderground v.1.15,2013-05-08 05:57:00,
2013-05-07 23:02:00,61.8,54.9,30.05,SW,215,3.0,3.0,78,0.00,,,0.01,Wunderground v.1.15,2013-05-08 06:02:00,
2013-05-07 23:07:00,61.8,55.2,30.04,SW,233,3.0,3.0,79,0.00,,,0.01,Wunderground v.1.15,2013-05-08 06:07:00,
2013-05-07 23:12:00,61.8,55.2,30.04,SW,235,3.0,4.0,79,0.00,,,0.01,Wunderground v.1.15,2013-05-08 06:12:00,
2013-05-07 23:22:00,61.6,55.4,30.04,WSW,240,2.0,2.0,80,0.00,,,0.01,Wunderground v.1.15,2013-05-08 06:22:00,
2013-05-07 23:27:00,61.6,55.4,30.05,WSW,241,2.0,2.0,80,0.00,,,0.01,Wunderground v.1.15,2013-05-08 06:27:00,
2013-05-07 23:32:00,61.5,55.3,30.05,WSW,244,2.0,3.0,80,0.00,,,0.01,Wunderground v.1.15,2013-05-08 06:32:00,
2013-05-07 23:37:00,61.4,55.5,30.05,WSW,243,2.0,3.0,81,0.00,,,0.01,Wunderground v.1.15,2013-05-08 06:37:00,
2013-05-07 23:47:00,61.3,55.8,30.05,WSW,243,1.0,2.0,82,0.00,,,0.01,Wunderground v.1.15,2013-05-08 06:47:00,
2013-05-07 23:57:00,61.2,56.0,30.05,WSW,243,1.0,1.0,83,0.00,,,0.01,Wunderground v.1.15,2013-05-08 06:57:00,